Location: Fort Worth, Tx
(32.7431°N, 97.3695°W)
Time: 14:11:38
(UTC-04:00)

Altair - Pass Details

Date: 05 October 2023
Orbit: 1501 x 1682 km, 47.2° (Epoch: 08 October)

Event Time Altitude Azimuth Distance (km) Brightness Sun altitude
Rises 08:50:36 0° 306° (NW) 4,879 9.6 4.2°
Reaches altitude 10° 08:53:47 10° 310° (NW) 3,908 9.1 4.9°
Maximum altitude 09:03:48 64° 31° (NNE) 1,825 8.2 7.0°
Drops below altitude 10° 09:13:52 10° 112° (ESE) 3,932 12.0 9.1°
Sets 09:17:04 0° 116° (ESE) 4,910 12.0 9.7°
